[[{"header":{"parameterUnit":"m.s-1","parameterCategory":1,"la1":30.2991,"la2":30.254,"lo1":-89.0895,"lo2":-89.0444,"dy":0.0017,"dx":0.0017,"nx":28,"ny":28,"refTime":"2025-03-28T09:00:00:Z","depth":0,"parameterNumber":2,"parameterNumberName":"U-component_of_WINDS"},"data":[0,0,0,0,0,0,0,0,0,0,0,0,0,0,0,0,0,0,0,0,0,0,0,0,0,0,0,0,0,0,0,0,0,0,0,0,0,0,0,0,0,0,0,0,0,0,0,0,0,0,0,0,0,0,0,0,0,0,-7.9476,-7.9478,0,-7.9657,-7.9659,-7.9661,-7.9638,-7.9635,-7.9632,-7.9629,-7.9812,-7.9819,-7.9826,0,0,0,0,0,0,0,0,0,0,0,0,0,-7.9107,-7.9114,-7.9475,-7.9478,-7.948,-7.9657,-7.9659,-7.9662,-7.9638,-7.9635,-7.9631,-7.9628,-7.9809,-7.9818,-7.9827,0,0,0,0,0,0,0,0,0,0,0,0,0,-7.9275,-7.9116,-7.9475,-7.949,-7.9493,-7.9656,-7.9659,-7.9663,-7.9639,-7.9635,-7.963,-7.9626,-7.9806,-7.9817,-7.9828,-7.9988,0,0,-7.9863,-7.9868,0,0,0,0,0,0,0,0,-7.9266,-7.9289,-7.9485,-7.9489,-7.9493,-7.962,-7.9596,-7.9772,-7.964,-7.9583,-7.9629,-7.9624,-7.9751,-7.9767,-7.9811,-7.9997,-8.0004,-7.9864,-7.9871,-7.9876,-7.9879,0,0,0,0,0,0,0,-7.9254,-7.9281,-7.9547,-7.9488,-7.9493,-7.9487,-7.9506,-7.9629,-7.969,-7.9588,-7.9587,-7.9609,-7.9752,-7.98,-7.9815,-8.0007,-7.9864,-7.9874,-7.9881,-7.9886,-8.0334,-8.0339,0,0,0,0,0,0,-7.9239,-7.9272,-7.9541,-7.9553,-7.9366,-7.9497,-7.9518,-7.9584,-7.9689,-7.97,-7.9612,-7.9607,-7.9782,-7.9801,-7.9821,-8.0014,-7.9876,-7.9887,-7.9893,-8.0329,-8.0335,-8.0341,0,0,0,0,0,0,-7.9231,-7.9264,-7.9534,-7.9412,-7.9446,-7.9508,-7.9582,-7.959,-7.9637,-7.9707,-7.9717,-7.9649,-7.978,-7.9805,-7.9947,-8.002,-7.9892,-7.9902,-8.0323,-8.0331,-8.0338,-8.0402,0,0,0,0,0,0,-7.9221,-7.9261,-7.9322,-7.9414,-7.9453,-7.9657,-7.9586,-7.9597,-7.9657,-7.9652,-7.9745,-7.9756,-7.9778,-7.993,-7.9959,-8.0034,-7.9911,-8.0317,-8.0327,-8.0336,-8.0393,-8.0411,-8.0426,0,0,0,0,0,-7.9208,-7.9332,-7.9325,-7.9358,-7.9531,-7.9662,-7.9684,-7.9708,-7.9663,-7.9725,-7.9771,-7.9753,-8.0009,-7.9945,-7.9977,-8.0056,-8.0312,-8.0324,-8.0335,-8.0386,-8.0407,-8.0425,0,0,0,0,0,0,-7.9245,-7.9344,-7.9338,-7.9495,-7.9571,-7.9657,-7.9736,-7.973,-7.9818,-7.9809,-7.9835,-7.9856,-7.9999,-8.0043,-7.997,-8.0217,-8.0154,-8.0172,-8.0182,-8.0203,-8.0219,-8.0204,-7.9921,0,0,0,0,0,-7.9272,-7.9371,-7.9452,-7.9583,-7.9622,-7.9673,-7.9731,-7.9743,-7.9822,-7.9853,-7.9909,-7.9985,-8.0083,-8.0146,-8.024,-8.0402,-8.0421,-8.0472,-8.0488,-8.0501,-8.0515,-8.0604,-8.0627,-8.0378,-8.0378,-8.0378,0,0,-7.9328,-7.9394,-7.9455,-7.9593,-7.9652,-7.9753,-7.9699,-7.9808,-7.9884,-7.9869,-8.0006,-8.0051,-8.0138,-8.029,-8.036,-8.0331,-8.0589,-8.0516,-8.0525,-8.0532,-8.0618,-8.0641,-8.0662,-8.0386,-8.0384,-8.0383,0,0,-7.948,-7.9542,-7.9657,-7.9719,-7.9812,-7.9845,-7.9874,-7.9963,-7.9992,-8.0131,-8.0123,-8.0213,-8.0381,-8.0443,-8.0496,-8.0678,-8.0664,-8.0708,-8.079,-8.0876,-8.0895,-8.0913,-8.0976,-8.0998,-8.0723,-8.0723,-8.0723,0,-7.9537,-7.969,-7.9717,-7.9829,-7.9889,-7.9884,-8.0001,-8.006,-8.0177,-8.0219,-8.0186,-8.0397,-8.0455,-8.0622,-8.0667,-8.0711,-8.0743,-8.0695,-8.0891,-8.0909,-8.0925,-8.0985,-8.1009,-8.0727,-8.0727,-8.0726,-8.0726,0,-7.9755,-7.9861,-7.9944,-8.0059,-8.013,-8.0244,-8.0288,-8.0356,-8.0365,-8.0402,-8.0544,-8.0615,-8.0723,-8.0765,-8.0773,-8.0934,-8.0912,-8.0885,-8.0821,-8.0953,-8.101,-8.1033,-8.0734,-8.0732,-8.0731,-8.073,0,0,-7.9931,-8.0063,-8.0093,-8.0145,-8.0249,-8.0331,-8.0446,-8.0553,-8.061,-8.0694,-8.0789,-8.0933,-8.0909,-8.097,-8.0986,-8.1062,-8.12,-8.1026,-8.1028,-8.1053,-8.138,-8.1398,-8.1424,-8.1194,-8.1198,-8.1202,-8.1372,0,-8.0091,-8.0293,-8.0323,-8.0501,-8.0599,-8.0598,-8.0698,-8.0772,-8.0812,-8.0901,-8.0944,-8.1045,-8.1007,-8.1044,-8.112,-8.1167,-8.1265,-8.1156,-8.1281,-8.1285,-8.1255,-8.1454,-8.1472,-8.1629,-8.1395,-8.1399,-8.1401,0,-8.0304,-8.0394,-8.0582,-8.0674,-8.0716,-8.0805,-8.0907,-8.0993,-8.1078,-8.1101,-8.1172,-8.1179,-8.1297,-8.1233,-8.1396,-8.1321,-8.1375,-8.1407,-8.1413,-8.1422,-8.1348,-8.1465,-8.168,-8.1702,-8.1437,-8.1434,-8.1432,0,-8.041,-8.058,-8.0714,-8.076,-8.087,-8.0933,-8.0982,-8.1062,-8.1126,-8.1215,-8.1256,-8.1358,-8.1413,-8.1492,-8.1527,-8.1477,-8.1688,-8.1626,-8.1709,-8.1708,-8.1749,-8.1745,-8.1972,-8.179,-8.179,-8.1789,-8.1789,0,-8.0584,-8.0699,-8.0763,-8.0845,-8.0974,-8.1009,-8.1135,-8.1182,-8.1255,-8.1346,-8.1352,-8.1438,-8.148,-8.1573,-8.1601,-8.1731,-8.1757,-8.1778,-8.1783,-8.1775,-8.1772,-8.1807,-8.1796,-8.1796,-8.1794,-8.1793,-8.1792,0,-8.0722,-8.0771,-8.0917,-8.1011,-8.1038,-8.1128,-8.1209,-8.1289,-8.133,-8.1445,-8.1474,-8.1538,-8.1647,-8.1691,-8.1824,-8.1843,-8.1992,-8.1991,-8.1963,-8.1964,-8.2043,-8.2034,-8.2297,-8.2333,-8.2131,-8.2133,-8.2134,0,-8.0828,-8.0916,-8.1021,-8.1083,-8.1135,-8.1235,-8.13,-8.1339,-8.1407,-8.1512,-8.1579,-8.1689,-8.1778,-8.1952,-8.201,-8.2112,-8.2111,-8.2197,-8.2126,-8.2116,-8.2109,-8.2102,-8.211,-8.2208,-8.221,-8.2212,-8.2213,0,-8.101,-8.103,-8.1124,-8.1229,-8.1307,-8.139,-8.1471,-8.1522,-8.1573,-8.1649,-8.1762,-8.1831,-8.1969,-8.2077,-8.2183,-8.2233,-8.2231,-8.2236,-8.226,-8.225,-8.2229,-8.2239,-8.1995,-8.2228,-8.2227,-8.2226,-8.2225,-8.2224,-8.1133,-8.1212,-8.1298,-8.1404,-8.147,-8.1546,-8.1626,-8.1678,-8.1773,-8.1888,-8.1906,-8.2026,-8.2111,-8.2254,-8.2309,-8.2403,-8.2381,-8.2416,-8.2424,-8.2431,-8.2435,-8.2218,-8.2423,-8.2422,-8.2422,-8.2422,-8.2422,0,-8.1313,-8.1369,-8.1466,-8.1581,-8.1664,-8.1659,-8.1749,-8.1819,-8.1924,-8.2005,-8.2093,-8.2223,-8.2329,-8.2397,-8.2504,-8.2566,-8.2568,-8.2592,-8.2586,-8.2597,-8.245,-8.2417,-8.2589,-8.2589,-8.2589,-8.2589,-8.2589,-8.2589,-8.1416,-8.1548,-8.1579,-8.1745,-8.1801,-8.1919,-8.1971,-8.2042,-8.2106,-8.2251,-8.2339,-8.2384,-8.2459,-8.2572,-8.2669,-8.2687,-8.2724,-8.275,-8.2765,-8.2625,-8.2608,-8.2591,-8.256,-8.2759,-8.2759,-8.2904,-8.2906,-8.2907]},{"header":{"parameterUnit":"m.s-1","parameterCategory":1,"la1":30.2991,"la2":30.254,"lo1":-89.0895,"lo2":-89.0444,"dy":0.0017,"dx":0.0017,"nx":28,"ny":28,"refTime":"2025-03-28T09:00:00:Z","depth":0,"parameterNumber":3,"parameterNumberName":"V-component_of_WINDS"},"data":[0,0,0,0,0,0,0,0,0,0,0,0,0,0,0,0,0,0,0,0,0,0,0,0,0,0,0,0,0,0,0,0,0,0,0,0,0,0,0,0,0,0,0,0,0,0,0,0,0,0,0,0,0,0,0,0,0,0,3.9412,3.9412,0,3.9473,3.9474,3.9474,3.9464,3.9463,3.9462,3.9461,3.952,3.9522,3.9525,0,0,0,0,0,0,0,0,0,0,0,0,0,3.9284,3.9286,3.9412,3.9413,3.9413,3.9473,3.9474,3.9475,3.9464,3.9463,3.9461,3.946,3.9519,3.9522,3.9525,0,0,0,0,0,0,0,0,0,0,0,0,0,3.9341,3.9287,3.9412,3.9415,3.9416,3.9473,3.9474,3.9475,3.9464,3.9463,3.9461,3.946,3.9518,3.9522,3.9525,3.9581,0,0,3.9537,3.9539,0,0,0,0,0,0,0,0,3.9338,3.9346,3.9414,3.9415,3.9416,3.9459,3.945,3.951,3.9465,3.9446,3.9461,3.9459,3.9501,3.9506,3.9521,3.9584,3.9586,3.9537,3.954,3.9541,3.9543,0,0,0,0,0,0,0,3.9334,3.9343,3.9436,3.9415,3.9416,3.9413,3.942,3.9462,3.9481,3.9447,3.9447,3.9454,3.9501,3.9517,3.9522,3.9587,3.9537,3.9541,3.9543,3.9545,3.9702,3.9703,0,0,0,0,0,0,3.9329,3.934,3.9434,3.9438,3.9373,3.9417,3.9424,3.9447,3.9481,3.9485,3.9456,3.9454,3.9511,3.9517,3.9524,3.9593,3.9541,3.9545,3.9547,3.97,3.9702,3.9704,0,0,0,0,0,0,3.9327,3.9338,3.9431,3.9389,3.9401,3.9421,3.9447,3.9449,3.9465,3.9487,3.949,3.9469,3.951,3.9519,3.9568,3.9595,3.9547,3.955,3.9698,3.97,3.9703,3.9731,0,0,0,0,0,0,3.9323,3.9337,3.9359,3.9389,3.9403,3.9475,3.9448,3.9451,3.9472,3.947,3.95,3.9504,3.951,3.9562,3.9572,3.9599,3.9553,3.9695,3.9699,3.9702,3.9728,3.9734,3.974,0,0,0,0,0,3.9319,3.9363,3.936,3.9371,3.9431,3.9476,3.9484,3.9491,3.9474,3.9496,3.9511,3.9503,3.9591,3.9567,3.9578,3.9607,3.9694,3.9698,3.9702,3.9725,3.9733,3.974,0,0,0,0,0,0,3.9332,3.9367,3.9364,3.9419,3.9445,3.9475,3.9502,3.9499,3.9529,3.9526,3.9532,3.9539,3.959,3.9603,3.9577,3.9664,3.964,3.9646,3.9653,3.9661,3.9667,3.9663,3.9556,0,0,0,0,0,3.9342,3.9378,3.9405,3.9452,3.9465,3.9482,3.9502,3.9505,3.9532,3.9542,3.956,3.9586,3.9619,3.9641,3.9673,3.973,3.9737,3.9755,3.9761,3.9766,3.9772,3.9805,3.9814,3.9718,3.9718,3.9718,0,0,3.9362,3.9385,3.9407,3.9455,3.9476,3.9512,3.9491,3.9529,3.9556,3.9548,3.9596,3.961,3.9639,3.9693,3.9718,3.9706,3.98,3.9772,3.9775,3.9778,3.981,3.9819,3.9827,3.9721,3.972,3.972,0,0,3.9418,3.9438,3.9481,3.9502,3.9535,3.9546,3.9556,3.9586,3.9596,3.9645,3.964,3.9672,3.9729,3.9751,3.9769,3.9835,3.9829,3.9845,3.9878,3.991,3.9917,3.9924,3.9949,3.9958,3.9851,3.9851,3.9851,0,3.9438,3.9494,3.9502,3.9543,3.9564,3.956,3.9603,3.9623,3.9664,3.9679,3.9665,3.9739,3.9757,3.9818,3.9834,3.9849,3.9861,3.9842,3.9916,3.9923,3.9929,3.9953,3.9962,3.9853,3.9853,3.9852,3.9852,0,3.9518,3.9557,3.9587,3.9629,3.9654,3.9695,3.9709,3.9733,3.9735,3.9748,3.9799,3.9822,3.9859,3.9874,3.9874,3.9934,3.9926,3.9914,3.989,3.994,3.9963,3.9972,3.9855,3.9855,3.9854,3.9854,0,0,3.9583,3.9631,3.9642,3.9662,3.9698,3.9728,3.9769,3.9808,3.9829,3.9857,3.9893,3.9942,3.9932,3.9953,3.9957,3.9985,4.0038,3.997,3.9971,3.9983,4.0107,4.0117,4.0127,4.0035,4.0036,4.0038,4.0105,0,3.9643,3.9718,3.9728,3.9794,3.9831,3.9828,3.9865,3.9891,3.9904,3.9936,3.995,3.9986,3.997,3.9983,4.001,4.0026,4.0064,4.0021,4.0068,4.0069,4.0062,4.0139,4.0149,4.0211,4.0114,4.0116,4.0117,0,3.9723,3.9756,3.9827,3.986,3.9876,3.9909,3.9946,3.9977,4.0007,4.0014,4.0039,4.004,4.0083,4.0057,4.0117,4.0088,4.0107,4.0118,4.0121,4.0126,4.0096,4.0147,4.0231,4.0241,4.013,4.0129,4.0128,0,3.9765,3.9827,3.9878,3.9895,3.9935,3.9958,3.9976,4.0004,4.0028,4.006,4.0075,4.0111,4.0131,4.0159,4.0169,4.0149,4.0229,4.0203,4.0237,4.0237,4.0254,4.0253,4.0343,4.0265,4.0265,4.0265,4.0265,0,3.9832,3.9875,3.9898,3.9929,3.9978,3.9989,4.0037,4.0054,4.008,4.0114,4.0113,4.0145,4.0157,4.0191,4.0199,4.0249,4.0257,4.0265,4.0266,4.0265,4.0265,4.0279,4.0275,4.0267,4.0267,4.0266,4.0266,0,3.9887,3.9904,3.996,3.9994,4.0004,4.0039,4.0068,4.0098,4.0112,4.0155,4.0166,4.0187,4.0227,4.0241,4.0289,4.0295,4.0352,4.035,4.0343,4.0343,4.0377,4.0374,4.048,4.0495,4.0406,4.0407,4.0407,0,3.9929,3.9963,4.0002,4.0026,4.0045,4.0083,4.0108,4.012,4.0145,4.0183,4.0209,4.025,4.0283,4.0347,4.0366,4.0403,4.0402,4.0437,4.0408,4.0406,4.0405,4.0403,4.0407,4.0443,4.0444,4.0444,4.0445,0,4.0003,4.001,4.0046,4.0086,4.0116,4.0147,4.0177,4.0197,4.0213,4.0242,4.0284,4.031,4.0361,4.0401,4.044,4.0457,4.0454,4.0454,4.0464,4.0464,4.0459,4.0464,4.0359,4.0452,4.0451,4.045,4.045,4.045,4.0054,4.0085,4.0118,4.0159,4.0183,4.0212,4.0243,4.0262,4.0298,4.0341,4.0345,4.0391,4.0422,4.0473,4.0493,4.0529,4.0519,4.0533,4.0536,4.054,4.0544,4.0453,4.0535,4.0535,4.0535,4.0535,4.0535,0,4.0128,4.015,4.0188,4.0232,4.0264,4.026,4.0294,4.0321,4.0362,4.0391,4.0425,4.0474,4.0513,4.0537,4.0576,4.0601,4.06,4.0611,4.0609,4.0614,4.0549,4.0537,4.061,4.061,4.061,4.061,4.061,4.061,4.0171,4.0224,4.0236,4.0301,4.0322,4.0368,4.0388,4.0415,4.0439,4.0495,4.0528,4.0544,4.0571,4.0613,4.0649,4.0655,4.067,4.0682,4.0687,4.0626,4.0618,4.0611,4.06,4.0685,4.0685,4.0748,4.0749,4.0749]}]]